Regional Weather Roundup
Issued by NWS

Home | Current Version | Previous Version | Graphics & Text | Print | Product List | Glossary On
Versions: 1 2 3 4 5 6 7 8 9 10 11 12 13 14 15 16 17 18 19 20 21 22 23 24 25 26 27 28 29 30 31 32 33 34 35 36 37 38 39 40 41 42 43 44 45 46 47 48 49 50
000
ASUS43 KLSX 251010
RWRMO

WEATHER SUMMARY FOR MISSOURI
NATIONAL WEATHER SERVICE SPRINGFIELD MO
500 AM CDT WED MAY 25 2016

NOTE: "FAIR" INDICATES FEW OR NO CLOUDS BELOW 12,000 FEET WITH NO
       SIGNIFICANT WEATHER AND/OR OBSTRUCTIONS TO VISIBILITY.
       CURRENT SKY AND/OR WEATHER CONDITIONS ARE NOT AVAILABLE FOR
       CHILLICOTHE AND FARMINGTON.

MOZ001>031-035>038-043-044-053-054-251100-
...NORTHERN AND WESTERN MISSOURI...

CITY           SKY/WX    TMP DP  RH WIND       PRES   REMARKS
KANSAS CTY INT LGT RAIN  65  58  78 SW23G39   29.84F
KANSAS C DTWN  CLOUDY    66  60  81 S12       29.87F
LEE`S SUMMIT   CLOUDY    65  60  84 SW15      29.94S
ST JOSEPH      LGT RAIN  70  56  61 S35G54    29.74F
CHILLICOTHE      N/A     66  63  90 S8        29.92R
KIRKSVILLE     PTCLDY    63  62  97 S7        29.91F

$$
MOZ066>068-077>081-088>096-101>105-251100-
...SOUTHWEST MISSOURI...

CITY           SKY/WX    TMP DP  RH WIND       PRES   REMARKS
SPRINGFIELD    CLOUDY    67  63  87 S10       30.00R
JOPLIN         LGT RAIN  68  62  81 N12       30.00F

$$
MOZ032>034-039>042-045>050-055>058-069>072-251100-
...CENTRAL MISSOURI...

CITY           SKY/WX    TMP DP  RH WIND       PRES   REMARKS
COLUMBIA       CLOUDY    62  61  96 S8        29.96R
JEFFERSON CITY CLOUDY    62  60  93 E7        29.96R
ROLLA          CLOUDY    61  59  93 S13       29.98R
SEDALIA        CLOUDY    67  64  90 SW10G18   29.98R
WHITEMAN AFB   MOCLDY    65  65 100 SW7       29.95R
WARRENSBURG    CLOUDY    63  61  94 S6        29.95S

$$
MOZ051-052-059>065-251100-
...EAST CENTRAL MISSOURI...

CITY           SKY/WX    TMP DP  RH WIND       PRES   REMARKS
ST LOUIS INTL  CLOUDY    66  61  84 SE5       30.01R
SPIRIT OF STL  CLOUDY    60  60 100 CALM      29.99R
ST CHARLES     CLOUDY    62  60  93 E3        29.99R

$$
MOZ072>076-082>087-097>100-106>115-251100-
...SOUTH CENTRAL AND SOUTHEAST MISSOURI...

CITY           SKY/WX    TMP DP  RH WIND       PRES   REMARKS
CAPE GIRARDEAU CLOUDY    63  61  93 CALM      30.02R
FARMINGTON     CLEAR     61  59  93 S6        30.04R
POPLAR BLUFF   PTCLDY    62  61  96 CALM      30.03R
WEST PLAINS    CLOUDY    60  57  89 CALM      30.06R FOG

$$




USA.gov is the U.S. government's official web portal to all federal, state and local government web resources and services.